Weather History for Novato, CA

Change the Weather History Date:

Saturday, October 5, 2013

  Actual Average (KAPC) Record (KAPC)
Temperature  
Mean Temperature 64 °F 61 °F  
Max Temperature 82 °F 77 °F 87 °F (2002)
Min Temperature 46 °F 45 °F 36 °F (2009)
Degree Days  
Heating Degree Days 1    
Month to date heating degree days  
Since 1 July heating degree days  
Cooling Degree Days 0    
Month to date cooling degree days  
Year to date cooling degree days  
Growing Degree Days 14 (Base 50)    
Moisture  
Dew Point 30 °F    
Average Humidity 32    
Maximum Humidity 66    
Minimum Humidity 10    
Precipitation  
Precipitation 0.00 in - 0.66 in (1924)
Month to date precipitation  
Year to date precipitation  
Since 1 July precipitation  
Sea Level Pressure  
Sea Level Pressure 30.15 in    
Wind  
Wind Speed 5 mph (South)    
Max Wind Speed 9 mph    
Max Gust Speed -    
Visibility 10 miles    
Events Rain    
T = Trace of Precipitation, MM = Missing Value Source: NWS Daily Summary

Daily Weather History Graph

Daily Weather History Graph

Search for Another Location

Airport:

Trip Planner

Search our weather history database for the weather conditions in past years. The results will help you decide how hot, cold, wet, or windy it might be!

Date:

Astronomy

Oct. 05, 2013 Rise Set
Actual Time 7:09 AM PDT 6:46 PM PDT
Civil Twilight 6:43 AM PDT 7:12 PM PDT
Nautical Twilight 6:12 AM PDT 7:43 PM PDT
Astronomical Twilight 5:42 AM PDT 8:13 PM PDT
Moon 7:53 AM PDT (10/5) 7:10 PM PDT (10/5)
Length of Visible Light 12h 29m
Length of Day
11h 36m
New Moon, 1% of the Moon is Illuminated
Oct 5
New Moon
Oct 11
First Quarter
Oct 18
Full
Oct 26
Last Quarter
Nov 3
New

Hourly Weather History & Observations

Time (PDT) Temp. Windchill Dew Point Humidity Pressure Visibility Wind Dir Wind Speed Gust Speed Precip Events Conditions
12:15 AM 55.4 °F - 30.2 °F 38% 30.10 in 10.0 mi South 5.8 mph - N/A   Unknown
12:35 AM 55.4 °F - 32.0 °F 41% 30.10 in 10.0 mi SSW 3.5 mph - N/A   Unknown
12:55 AM 53.6 °F - 32.0 °F 44% 30.11 in 10.0 mi South 6.9 mph - N/A   Unknown
1:15 AM 53.6 °F - 33.8 °F 47% 30.11 in 10.0 mi South 5.8 mph - N/A   Unknown
1:35 AM 53.6 °F - 32.0 °F 44% 30.12 in 10.0 mi South 6.9 mph - N/A   Unknown
1:55 AM 51.8 °F - 32.0 °F 47% 30.12 in 10.0 mi South 6.9 mph - N/A   Unknown
2:15 AM 53.6 °F - 32.0 °F 44% 30.13 in 10.0 mi South 9.2 mph - N/A   Unknown
2:35 AM 51.8 °F - 32.0 °F 47% 30.13 in 10.0 mi South 8.1 mph - N/A   Clear
2:55 AM 51.8 °F - 33.8 °F 50% 30.13 in 10.0 mi SW 4.6 mph - N/A   Clear
3:15 AM 53.6 °F - 30.2 °F 41% 30.13 in 10.0 mi South 6.9 mph - N/A   Clear
3:35 AM 51.8 °F - 32.0 °F 47% 30.13 in 10.0 mi South 5.8 mph - N/A   Clear
3:55 AM 51.8 °F - 32.0 °F 47% 30.13 in 10.0 mi SSW 5.8 mph - N/A   Clear
4:15 AM 51.8 °F - 32.0 °F 47% 30.13 in 10.0 mi South 6.9 mph - N/A   Clear
4:35 AM 50.0 °F - 32.0 °F 50% 30.13 in 10.0 mi South 3.5 mph - N/A   Clear
4:55 AM 48.2 °F - 32.0 °F 54% 30.14 in 10.0 mi Calm Calm - N/A   Clear
5:15 AM 46.4 °F 45.2 °F 35.6 °F 66% 30.14 in 10.0 mi South 3.5 mph - N/A   Clear
5:35 AM 46.4 °F 45.2 °F 33.8 °F 62% 30.14 in 10.0 mi South 3.5 mph - N/A   Clear
5:55 AM 48.2 °F - 33.8 °F 58% 30.15 in 10.0 mi South 4.6 mph - N/A   Clear
6:15 AM 50.0 °F - 32.0 °F 50% 30.15 in 10.0 mi South 3.5 mph - N/A   Clear
6:35 AM 50.0 °F - 32.0 °F 50% 30.15 in 10.0 mi SSW 5.8 mph - N/A   Clear
6:55 AM 51.8 °F - 33.8 °F 50% 30.16 in 10.0 mi SSW 4.6 mph - N/A   Clear
7:15 AM 55.4 °F - 28.4 °F 36% 30.16 in 10.0 mi SSW 5.8 mph - N/A   Clear
7:35 AM 55.4 °F - 33.8 °F 44% 30.17 in 10.0 mi Calm Calm - N/A   Clear
7:55 AM 55.4 °F - 37.4 °F 51% 30.18 in 10.0 mi Calm Calm - N/A   Clear
8:15 AM 57.2 °F - 37.4 °F 48% 30.18 in 10.0 mi Calm Calm - N/A   Clear
8:35 AM 62.6 °F - 33.8 °F 34% 30.19 in 10.0 mi Calm Calm - N/A   Clear
8:55 AM 66.2 °F - 30.2 °F 26% 30.19 in 10.0 mi South 6.9 mph - N/A   Clear
9:15 AM 68.0 °F - 32.0 °F 26% 30.20 in 10.0 mi South 5.8 mph - N/A   Clear
9:35 AM 68.0 °F - 32.0 °F 26% 30.20 in 10.0 mi South 6.9 mph - N/A   Clear
9:55 AM 69.8 °F - 32.0 °F 25% 30.21 in 10.0 mi SSE 5.8 mph - N/A   Clear
10:15 AM 71.6 °F - 28.4 °F 20% 30.21 in 10.0 mi South 6.9 mph - N/A   Clear
10:35 AM 73.4 °F - 30.2 °F 20% 30.21 in 10.0 mi South 6.9 mph - N/A   Clear
10:55 AM 73.4 °F - 32.0 °F 22% 30.21 in 10.0 mi SE 4.6 mph - N/A   Clear
11:15 AM 73.4 °F - 32.0 °F 22% 30.21 in 10.0 mi SSE 5.8 mph - N/A Rain Light Rain
11:35 AM 75.2 °F - 30.2 °F 19% 30.20 in 10.0 mi SSE 6.9 mph - N/A Rain Light Rain
11:55 AM 75.2 °F - 26.6 °F 17% 30.20 in 10.0 mi South 9.2 mph - N/A   Clear
12:15 PM 77.0 °F - 26.6 °F 16% 30.20 in 10.0 mi South 6.9 mph - N/A Rain Light Rain
12:35 PM 77.0 °F - 26.6 °F 16% 30.19 in 10.0 mi SE 8.1 mph - N/A Rain Light Rain
12:55 PM 77.0 °F - 26.6 °F 16% 30.19 in 10.0 mi SE 5.8 mph - N/A Rain Light Rain
1:15 PM 78.8 °F - 28.4 °F 16% 30.18 in 10.0 mi SE 5.8 mph - N/A Rain Light Rain
1:35 PM 80.6 °F - 28.4 °F 15% 30.17 in 10.0 mi SE 6.9 mph - N/A Rain Light Rain
1:55 PM 80.6 °F - 28.4 °F 15% 30.16 in 10.0 mi SE 9.2 mph - N/A Rain Light Rain
2:15 PM 80.6 °F - 26.6 °F 14% 30.15 in 10.0 mi SE 8.1 mph - N/A Rain Light Rain
2:35 PM 82.4 °F - 24.8 °F 12% 30.15 in 10.0 mi SE 6.9 mph - N/A Rain Light Rain
2:55 PM 82.4 °F - 24.8 °F 12% 30.15 in 10.0 mi ESE 5.8 mph - N/A Rain Light Rain
3:15 PM 82.4 °F - 21.2 °F 10% 30.14 in 10.0 mi SE 6.9 mph - N/A Rain Light Rain
3:35 PM 82.4 °F - 23.0 °F 11% 30.14 in 10.0 mi ESE 5.8 mph - N/A Rain Light Rain
3:55 PM 82.4 °F - 24.8 °F 12% 30.14 in 9.0 mi SE 5.8 mph - N/A   Clear
4:15 PM 82.4 °F - 24.8 °F 12% 30.13 in 10.0 mi SE 4.6 mph - N/A Rain Light Rain
4:35 PM 82.4 °F - 24.8 °F 12% 30.13 in 10.0 mi SE 5.8 mph - N/A   Clear
4:55 PM 82.4 °F - 24.8 °F 12% 30.12 in 10.0 mi SE 4.6 mph - N/A   Clear
5:15 PM 82.4 °F - 28.4 °F 14% 30.12 in 10.0 mi SE 4.6 mph - N/A   Clear
5:35 PM 80.6 °F - 28.4 °F 15% 30.11 in 10.0 mi SE 4.6 mph - N/A   Clear
5:55 PM 80.6 °F - 32.0 °F 17% 30.11 in 10.0 mi SE 3.5 mph - N/A   Clear
6:15 PM 77.0 °F - 28.4 °F 17% 30.11 in 10.0 mi SSE 3.5 mph - N/A   Clear
6:35 PM 71.6 °F - 28.4 °F 20% 30.11 in 10.0 mi WSW 3.5 mph - N/A   Clear
6:55 PM 71.6 °F - 28.4 °F 20% 30.11 in 10.0 mi West 3.5 mph - N/A   Clear
7:15 PM 68.0 °F - 28.4 °F 23% 30.12 in 10.0 mi North 5.8 mph - N/A   Clear
7:35 PM 64.4 °F - 28.4 °F 26% 30.12 in 10.0 mi NNW 3.5 mph - N/A   Clear
7:55 PM 62.6 °F - 32.0 °F 32% 30.12 in 10.0 mi Calm Calm - N/A   Clear
8:15 PM 60.8 °F - 32.0 °F 34% 30.12 in 10.0 mi Calm Calm - N/A   Clear
8:35 PM 60.8 °F - 30.2 °F 31% 30.13 in 10.0 mi Calm Calm - N/A   Clear
8:55 PM 59.0 °F - 32.0 °F 36% 30.13 in 10.0 mi Calm Calm - N/A   Clear
9:15 PM 55.4 °F - 32.0 °F 41% 30.13 in 10.0 mi North 3.5 mph - N/A   Clear
9:35 PM 57.2 °F - 32.0 °F 38% 30.13 in 10.0 mi Calm Calm - N/A   Clear
9:55 PM 53.6 °F - 32.0 °F 44% 30.13 in 10.0 mi Calm Calm - N/A   Clear
10:15 PM 55.4 °F - 32.0 °F 41% 30.13 in 10.0 mi Calm Calm - N/A   Clear
10:35 PM 55.4 °F - 32.0 °F 41% 30.13 in 10.0 mi Calm Calm - N/A   Clear
10:55 PM 55.4 °F - 32.0 °F 41% 30.13 in 10.0 mi Calm Calm - N/A   Clear
11:15 PM 55.4 °F - 32.0 °F 41% 30.13 in 10.0 mi Calm Calm - N/A   Clear
11:35 PM 53.6 °F - 32.0 °F 44% 30.13 in 10.0 mi Calm Calm - N/A   Clear
11:55 PM 53.6 °F - 32.0 °F 44% 30.13 in 10.0 mi SW 3.5 mph - N/A   Clear